Temp
68 70 71 73 73 75 71 72 65 62 63 65 65 65 65 66 66 65 65 65 66 63 63 63 63 63 59 60 66 68 69 71 70 71 84 88 86 84 85 84 85 85 85 84
62 70 68 67 73 73 74 74 73 68 65 74 71 69 67 67 67 66 66 67 67 68 68 66 65 65 65 62 61 66 67 68 69 72 75 79 82 83 85 84 84 83 84 84
55 66 65 58 67 69 71 75 65 58 65 72 70 70 70 70 69 68 68 70 70 69 69 70 71 70 67 65 66 62 63 67 67 69 70 72 78 82 83 82 83 82 83 84
56 59 46 65 76 74 70 73 73 70 69 72 71 72 73 73 70 69 70 70 71 73 71 72 73 72 72 73 70 68 69 68 66 67 69 71 74 71 74 79 80 80 81 83
52 44 56 63 65 66 66 65 73 71 72 72 73 71 67 71 72 70 71 72 72 73 74 74 73 74 72 72 72 72 70 70 68 67 67 69 70 71 71 73 77 78 79 81
56 50 47 59 68 73 72 57 70 71 70 70 71 61 64 70 72 71 72 71 70 72 74 73 72 74 72 72 72 71 70 71 71 71 69 67 66 70 72 74 74 76 78 80
54 52 56 65 68 71 52 56 70 72 71 70 66 65 67 70 69 70 69 69 69 69 68 68 69 69 67 69 69 70 70 70 70 70 69 70 70 69 70 69 72 74 74 77
55 50 45 69 66 58 62 68 68 68 67 66 66 67 68 68 67 68 67 68 69 67 66 67 67 66 64 64 67 67 67 67 68 68 70 71 68 69 69 70 70 73 73 75
56 52 63 67 66 69 70 66 67 67 68 68 66 65 67 66 67 66 67 66 68 66 65 65 65 64 62 63 64 64 64 64 65 66 67 68 68 69 70 70 72 74 76 76
56 62 63 65 69 70 70 69 69 70 69 69 67 67 66 66 66 66 65 65 65 63 62 62 64 64 63 63 64 63 61 62 64 64 64 66 69 71 72 73 72 75 77 78
58 62 65 67 68 68 68 70 69 70 70 68 68 66 66 65 65 64 64 64 63 61 61 60 62 61 63 63 62 60 60 61 62 65 65 66 68 71 72 73 74 74 75 74
51 64 63 64 69 70 67 66 68 67 66 68 67 65 66 65 64 63 63 64 61 61 60 60 60 60 61 61 59 57 56 59 60 61 63 64 65 66 63 58 56 53 52 59
59 63 64 69 71 72 68 68 68 68 67 66 67 67 66 65 65 63 63 63 61 60 60 59 58 58 59 59 58 56 54 55 57 58 59 60 61 61 61 65 59 53 50 51
67 67 60 66 65 70 70 70 67 69 69 68 67 68 67 66 61 64 61 63 62 61 59 58 57 56 59 58 56 54 54 52 54 57 58 58 59 61 63 63 65 68 64 54
65 67 61 63 67 68 70 69 66 65 67 67 68 67 66 64 63 62 65 65 63 61 58 57 56 56 59 58 55 54 54 53 54 54 56 56 57 57 58 59 60 63 68 65
64 65 59 56 64 66 66 67 65 65 66 66 67 65 64 65 63 63 64 64 60 59 58 57 56 57 57 57 55 55 54 54 53 52 52 54 54 55 57 57 59 62 64 67
60 58 58 58 58 63 65 64 65 66 67 67 67 67 65 64 62 59 60 64 62 59 58 56 56 57 56 56 54 54 53 53 52 51 50 51 52 53 54 55 57 59 62 65
63 64 62 55 53 59 63 65 65 67 66 67 67 67 64 62 60 60 62 62 61 59 56 58 55 56 56 55 54 53 53 52 50 49 49 49 49 51 53 53 54 56 59 61
65 62 59 59 61 64 66 67 67 68 68 67 66 64 65 63 59 58 59 60 58 56 57 60 55 57 56 55 54 53 52 49 49 48 47 46 46 48 49 50 51 54 56 59
64 65 67 64 62 64 61 64 64 58 58 58 66 64 62 62 61 58 61 58 59 60 60 60 58 57 56 56 54 53 50 47 45 44 43 43 42 44 46 46 48 50 53 55
61 64 60 59 60 62 61 59 60 53 55 54 52 54 61 62 62 58 58 58 61 59 60 58 58 59 58 56 54 52 49 46 45 43 41 41 41 41 42 44 45 47 49 51
60 60 61 61 59 59 61 60 62 63 61 61 61 56 52 52 56 58 62 61 61 55 61 62 60 56 55 53 55 51 48 45 42 41 40 40 40 39 40 40 41 43 45 47
64 61 62 60 60 60 61 61 60 62 61 60 59 58 54 50 51 54 57 62 63 57 62 62 57 52 52 53 54 51 49 46 42 41 40 40 39 39 39 39 39 40 42 44
61 59 58 59 62 60 59 60 62 61 60 59 58 58 54 49 50 59 64 59 54 55 60 61 56 52 50 55 51 46 46 47 42 41 41 40 39 38 38 38 37 38 39 41
60 62 59 58 57 55 57 57 55 55 54 54 53 55 52 51 50 59 64 62 56 58 63 54 53 52 54 54 53 51 48 47 43 41 39 38 37 37 36 36 36 36 36 38
62 62 60 56 54 55 51 49 46 48 48 50 48 50 51 51 59 65 65 61 65 59 62 61 59 58 59 59 57 53 51 49 46 41 39 38 37 36 36 36 36 36 35 35
61 57 60 54 51 54 50 47 46 47 51 51 49 51 52 59 63 63 59 66 67 67 66 65 64 60 61 60 59 58 55 51 45 44 40 38 38 36 36 36 35 35 35 34
MSLP
1006.09 1005.56 1004.29 1002.32 1002.51 1002.24 1002.41 1002.76 1003.63 1005.88 1007.50 1009.75 1011.76 1013.14 1014.34 1015.26 1015.82 1016.25 1016.54 1017.44 1017.93 1018.45 1018.64 1018.55 1018.56 1019.24 1019.49 1019.16 1018.27 1018.08 1017.92 1017.00 1015.18 1016.62 1014.67 1015.41 1014.66 1015.84 1016.29 1016.64 1016.73 1016.97 1017.35 1017.75
1006.86 1006.00 1005.66 1004.25 1003.05 1003.23 1003.58 1003.91 1004.67 1006.18 1007.79 1009.51 1011.76 1013.28 1014.12 1014.92 1015.43 1015.80 1015.98 1016.84 1017.55 1017.88 1018.11 1018.26 1018.44 1018.79 1018.88 1018.80 1019.08 1019.10 1018.80 1018.33 1017.09 1018.69 1016.64 1015.90 1015.09 1015.73 1015.98 1016.28 1016.47 1016.78 1016.98 1017.28
1007.66 1007.22 1006.85 1006.32 1005.43 1005.15 1005.35 1005.41 1006.68 1008.08 1009.42 1010.43 1011.54 1012.35 1013.41 1014.44 1015.27 1015.62 1015.82 1016.32 1016.88 1017.49 1017.77 1017.85 1017.93 1018.20 1018.33 1018.45 1018.49 1018.39 1018.91 1019.61 1018.89 1017.60 1016.73 1016.79 1016.73 1015.99 1015.71 1016.09 1015.99 1016.26 1016.41 1016.67
1008.68 1008.39 1008.01 1007.09 1006.58 1006.73 1006.87 1006.82 1007.43 1008.20 1010.03 1010.89 1011.88 1013.12 1013.79 1014.73 1015.62 1016.08 1016.18 1016.52 1016.81 1017.16 1017.72 1017.86 1018.03 1018.18 1018.16 1018.00 1018.16 1018.44 1018.46 1019.37 1019.55 1018.93 1018.86 1018.22 1017.43 1017.16 1016.83 1016.14 1015.84 1015.94 1015.97 1016.04
1009.08 1009.97 1009.33 1008.47 1008.38 1008.11 1007.97 1008.30 1009.02 1009.64 1010.66 1011.62 1012.83 1013.80 1014.98 1015.73 1016.10 1016.59 1016.90 1017.13 1017.42 1017.64 1017.83 1018.04 1018.26 1018.43 1018.58 1018.49 1018.47 1018.49 1018.74 1018.91 1018.64 1019.02 1019.34 1018.88 1018.28 1017.85 1017.44 1016.81 1016.21 1015.99 1015.85 1015.78
1009.70 1009.43 1009.39 1009.10 1009.63 1009.21 1008.89 1009.22 1010.46 1011.06 1011.84 1012.66 1013.34 1013.92 1014.91 1016.11 1016.47 1017.04 1017.61 1018.04 1018.35 1018.35 1018.28 1018.40 1018.85 1018.85 1018.93 1018.82 1018.86 1018.90 1019.20 1018.99 1018.85 1018.87 1018.80 1018.57 1018.18 1017.70 1017.51 1017.02 1016.53 1016.31 1015.96 1015.70
1010.57 1010.09 1010.28 1011.11 1010.84 1010.43 1010.40 1010.73 1011.07 1011.68 1012.50 1013.23 1013.94 1015.10 1015.89 1016.68 1017.37 1017.81 1018.30 1018.77 1019.09 1019.18 1019.34 1019.67 1019.75 1019.69 1019.54 1019.43 1019.28 1019.36 1019.32 1019.22 1018.97 1018.92 1018.75 1018.18 1017.82 1017.84 1017.44 1017.09 1016.66 1016.11 1015.88 1015.46
1011.25 1011.01 1010.91 1011.18 1011.46 1011.53 1012.13 1012.17 1012.66 1013.10 1014.00 1014.64 1015.54 1016.18 1016.75 1017.34 1017.93 1018.40 1018.79 1019.22 1019.49 1019.70 1020.11 1020.35 1020.55 1020.53 1020.39 1020.20 1020.09 1019.99 1019.80 1019.53 1019.34 1019.15 1018.83 1018.34 1018.09 1017.73 1017.51 1016.98 1016.40 1015.81 1015.49 1015.12
1012.17 1012.35 1012.65 1012.74 1012.39 1012.72 1012.80 1013.31 1013.88 1014.29 1014.99 1015.50 1016.13 1016.64 1017.29 1017.82 1018.38 1018.86 1019.27 1019.67 1019.90 1020.23 1020.42 1020.69 1020.90 1021.08 1021.09 1021.13 1021.05 1020.80 1020.53 1020.20 1019.77 1019.40 1019.02 1018.57 1018.09 1017.58 1017.10 1016.72 1016.08 1015.46 1014.97 1014.58
1012.93 1012.77 1012.73 1013.07 1013.33 1013.43 1013.61 1013.88 1014.50 1014.78 1015.50 1015.96 1016.26 1016.95 1017.57 1018.16 1018.75 1019.14 1019.67 1020.05 1020.53 1020.94 1021.02 1021.07 1021.16 1021.17 1021.34 1021.27 1021.16 1021.03 1020.77 1020.42 1019.97 1019.51 1019.00 1018.50 1017.90 1017.29 1016.71 1016.17 1015.83 1015.19 1014.49 1013.95
1013.09 1013.19 1013.16 1013.16 1013.31 1013.90 1014.37 1014.60 1015.02 1015.32 1015.73 1016.17 1016.63 1017.23 1017.77 1018.45 1019.01 1019.55 1020.05 1020.47 1021.10 1021.40 1021.43 1021.53 1021.49 1021.61 1021.58 1021.46 1021.41 1021.22 1020.93 1020.53 1020.03 1019.35 1018.78 1018.17 1017.52 1016.88 1016.30 1015.72 1015.33 1015.02 1014.59 1014.35
1013.17 1013.00 1012.91 1013.02 1013.04 1013.59 1014.31 1014.96 1015.40 1015.82 1016.31 1016.77 1017.18 1017.53 1018.14 1018.58 1019.22 1019.88 1020.12 1020.38 1021.07 1021.42 1021.75 1021.82 1021.90 1021.93 1021.92 1021.92 1021.97 1021.90 1021.44 1020.82 1020.34 1019.93 1019.18 1018.59 1017.92 1017.02 1016.39 1015.68 1015.21 1014.78 1014.27 1014.09
1013.41 1013.46 1013.25 1012.72 1012.69 1012.82 1013.70 1014.60 1015.33 1015.82 1016.31 1016.80 1017.25 1017.70 1018.16 1018.57 1019.26 1019.80 1020.21 1020.31 1020.98 1021.35 1021.50 1021.78 1022.06 1022.18 1022.23 1022.29 1022.22 1022.12 1021.93 1021.56 1020.93 1020.29 1019.59 1018.91 1018.28 1017.67 1016.55 1015.70 1014.88 1014.29 1013.79 1013.38
1013.21 1013.20 1013.32 1012.92 1012.61 1013.11 1013.67 1014.24 1015.12 1015.64 1016.11 1016.68 1017.07 1017.49 1017.91 1018.35 1019.09 1019.40 1019.75 1020.27 1020.82 1021.26 1021.64 1022.01 1022.17 1022.19 1022.16 1022.17 1022.34 1022.28 1022.10 1021.77 1021.22 1020.39 1019.73 1019.15 1018.53 1017.77 1016.98 1015.92 1014.77 1013.76 1013.29 1012.89
1013.14 1013.18 1013.45 1013.32 1012.88 1013.23 1013.65 1014.23 1014.79 1015.47 1015.77 1016.17 1016.64 1017.04 1017.50 1018.26 1018.91 1019.45 1019.69 1020.09 1020.63 1021.16 1021.62 1021.92 1021.98 1021.99 1021.89 1021.95 1021.99 1021.81 1021.55 1021.18 1020.97 1020.57 1019.93 1019.43 1018.81 1018.09 1017.48 1016.62 1015.53 1014.43 1013.38 1012.28
1012.68 1013.03 1013.52 1014.46 1013.78 1013.23 1013.73 1014.22 1014.63 1014.96 1015.35 1015.72 1015.90 1016.29 1017.10 1017.79 1018.57 1019.08 1019.53 1019.90 1020.40 1020.75 1021.41 1021.51 1021.66 1021.61 1021.80 1021.80 1021.55 1021.23 1020.88 1020.57 1020.40 1020.11 1019.70 1019.08 1018.50 1017.88 1016.97 1016.30 1015.46 1014.07 1013.03 1012.25
1012.82 1013.05 1013.85 1014.47 1014.20 1013.88 1013.49 1013.84 1014.24 1014.50 1014.59 1014.87 1015.20 1015.70 1016.51 1017.29 1017.99 1018.44 1018.91 1019.38 1019.89 1020.59 1020.91 1021.31 1021.49 1021.73 1021.97 1021.67 1021.43 1021.02 1020.76 1020.48 1020.16 1019.76 1019.34 1018.79 1018.22 1017.60 1016.84 1016.11 1015.10 1013.99 1013.04 1012.34
1013.11 1013.29 1013.65 1014.05 1014.98 1014.68 1014.16 1014.10 1014.16 1014.01 1014.16 1014.59 1015.06 1015.47 1015.96 1016.55 1017.26 1017.59 1018.19 1018.96 1019.55 1020.20 1020.72 1020.78 1021.38 1021.54 1021.60 1021.61 1021.38 1020.90 1020.45 1020.01 1019.69 1019.29 1018.87 1018.40 1017.82 1017.19 1016.47 1015.75 1014.91 1013.82 1012.84 1012.17
1012.92 1013.31 1014.02 1014.24 1013.87 1013.75 1013.55 1013.28 1013.33 1013.44 1013.58 1013.98 1014.51 1014.70 1014.99 1015.64 1016.43 1017.11 1017.66 1018.38 1019.02 1019.52 1020.02 1020.35 1020.90 1020.86 1020.99 1021.11 1020.99 1020.72 1020.35 1019.96 1019.60 1019.23 1018.93 1018.38 1017.66 1016.91 1016.07 1015.18 1014.32 1013.45 1012.73 1011.99
1012.64 1012.90 1012.82 1013.26 1013.70 1013.63 1013.65 1013.73 1013.76 1013.94 1014.31 1014.46 1014.22 1014.61 1014.78 1015.30 1015.79 1016.58 1017.16 1017.88 1018.56 1018.70 1019.27 1019.58 1019.94 1020.23 1020.43 1020.26 1020.38 1020.16 1020.30 1020.13 1019.73 1019.24 1018.77 1018.19 1017.57 1016.77 1015.74 1014.93 1014.12 1013.15 1012.20 1011.47
1012.93 1012.87 1013.57 1013.53 1013.48 1013.65 1013.59 1013.54 1013.70 1013.90 1014.08 1015.25 1014.73 1015.22 1014.68 1014.73 1014.97 1015.53 1016.61 1017.32 1017.57 1018.55 1018.78 1018.88 1019.21 1019.28 1019.43 1019.57 1019.67 1019.61 1019.76 1019.78 1019.46 1019.10 1018.54 1017.87 1017.22 1016.48 1015.61 1014.88 1013.88 1012.76 1011.87 1011.18
1013.28 1013.37 1013.26 1013.14 1013.36 1013.53 1013.48 1013.39 1013.24 1013.28 1013.82 1014.04 1014.15 1014.46 1015.15 1015.57 1014.94 1015.04 1015.70 1016.32 1017.15 1017.89 1018.00 1017.72 1018.09 1018.49 1018.80 1019.16 1018.86 1018.90 1019.06 1019.24 1019.16 1018.76 1018.13 1017.51 1016.79 1016.04 1015.35 1014.68 1013.67 1012.66 1011.88 1011.03
1012.86 1013.34 1013.52 1013.57 1013.60 1013.59 1013.44 1013.26 1013.27 1013.25 1013.26 1013.49 1013.81 1014.14 1014.67 1014.63 1016.16 1015.50 1015.22 1015.78 1016.40 1017.27 1017.29 1017.03 1017.23 1017.81 1018.15 1018.28 1018.11 1018.40 1018.45 1018.43 1018.46 1018.20 1017.63 1016.99 1016.43 1015.73 1014.99 1014.22 1013.28 1012.46 1011.53 1010.63
1013.51 1013.79 1013.79 1013.75 1013.61 1013.64 1013.53 1013.57 1013.26 1013.23 1013.37 1013.64 1013.86 1014.12 1014.72 1015.70 1016.34 1015.46 1015.03 1015.26 1016.26 1016.73 1016.53 1016.35 1016.84 1017.24 1017.57 1017.35 1017.47 1017.69 1017.75 1017.78 1017.81 1017.50 1017.04 1016.56 1015.98 1015.35 1014.56 1013.56 1012.74 1012.06 1011.19 1010.05
1013.76 1013.61 1014.09 1014.17 1014.32 1014.40 1014.41 1014.30 1014.22 1014.03 1013.88 1013.87 1014.17 1013.97 1014.75 1015.68 1016.33 1015.03 1014.91 1015.19 1015.76 1015.82 1015.48 1015.86 1016.26 1016.70 1016.83 1016.62 1016.59 1016.71 1017.05 1017.16 1017.29 1017.02 1016.72 1016.29 1015.65 1014.97 1014.20 1013.44 1012.64 1011.74 1010.78 1009.55
1013.33 1013.40 1013.96 1014.86 1015.23 1015.38 1015.67 1015.25 1014.40 1014.14 1014.19 1014.33 1014.67 1014.82 1015.39 1015.46 1015.09 1014.24 1014.20 1014.46 1014.39 1014.77 1014.87 1015.01 1015.50 1015.55 1015.44 1015.29 1015.31 1015.66 1016.12 1016.30 1016.36 1016.37 1016.24 1015.93 1015.41 1014.83 1014.13 1013.29 1012.41 1011.52 1010.64 1009.63
1013.79 1014.15 1014.27 1015.40 1015.91 1015.88 1016.14 1015.84 1015.31 1014.52 1014.68 1014.93 1015.18 1014.93 1014.69 1014.37 1013.87 1013.78 1014.02 1013.68 1013.52 1013.63 1013.97 1014.12 1014.29 1014.55 1014.72 1014.67 1014.54 1014.49 1014.92 1015.17 1015.45 1015.64 1015.73 1015.55 1015.22 1014.74 1014.09 1013.29 1012.54 1011.67 1010.75 1009.80
Wind_Speed
7 9 16 11 19 17 10 14 10 18 19 17 15 14 13 12 12 14 16 15 13 11 9 10 10 10 9 9 9 11 11 13 11 15 11 4 4 5 7 9 10 9 9 8
11 11 10 17 3 1 11 12 10 21 19 20 22 17 14 12 12 13 13 15 13 13 12 9 9 7 6 9 9 7 9 11 11 4 3 7 4 5 6 8 8 9 10 10
10 12 8 10 8 1 5 10 20 10 15 16 15 14 14 13 12 12 13 11 13 12 11 9 9 8 5 4 3 4 8 7 9 12 12 10 10 6 6 7 7 9 11 11
11 4 12 10 6 5 11 4 14 22 13 14 15 10 14 13 11 10 10 10 10 10 10 8 9 9 8 7 6 5 5 5 5 8 10 9 9 9 11 5 6 7 9 10
12 10 4 7 4 9 13 8 10 14 14 15 12 15 11 9 8 8 8 9 8 8 7 6 7 5 6 6 6 6 7 7 7 6 7 8 7 8 8 8 7 8 8 10
9 14 14 11 8 4 4 8 9 12 10 12 10 10 10 9 8 8 8 8 7 7 7 8 8 9 8 6 6 7 8 9 9 7 7 8 8 9 6 6 6 6 9 10
9 8 7 13 5 1 8 2 12 6 8 4 5 9 12 9 8 7 7 8 6 6 7 9 9 10 8 8 8 9 9 9 9 10 10 8 6 9 8 7 9 7 9 9
9 11 4 9 4 5 8 11 9 9 8 6 9 9 8 7 6 5 5 6 6 6 7 7 8 8 9 9 11 11 11 11 10 10 9 10 11 8 9 10 9 9 8 9
4 3 6 4 6 8 8 10 8 8 8 8 8 7 6 6 5 5 4 4 5 6 6 6 7 8 9 8 9 10 10 10 11 12 11 11 11 11 8 9 8 10 8 8
5 4 5 6 4 3 2 7 5 6 9 7 8 7 6 5 4 5 6 5 7 7 7 7 8 8 9 9 10 10 10 11 10 10 12 12 10 9 10 8 9 9 9 9
8 10 6 4 8 8 6 4 7 6 7 7 5 6 5 5 3 6 3 4 5 5 6 7 9 9 10 10 10 12 12 11 11 10 11 11 10 10 10 11 10 10 10 7
6 7 6 11 10 11 10 10 10 11 8 6 6 5 5 4 7 1 3 2 5 6 6 7 8 9 9 10 10 12 13 12 11 11 10 10 11 12 15 14 16 17 17 11
4 8 11 12 13 14 14 13 12 11 11 11 9 7 8 5 5 3 7 5 5 6 6 8 9 9 10 10 11 11 12 13 11 12 12 11 10 12 14 13 17 15 18 19
12 8 11 13 6 7 9 12 11 12 10 9 8 9 8 6 8 3 5 3 4 6 8 7 9 11 11 11 10 12 12 15 11 11 11 11 12 12 11 13 13 12 12 12
11 9 7 6 5 10 10 13 12 11 9 10 8 9 7 7 6 3 3 1 3 4 3 6 8 10 10 11 11 14 12 9 10 11 11 12 12 12 13 14 14 14 15 12
7 6 2 7 13 10 13 11 12 12 13 12 12 10 11 9 8 5 6 2 3 3 4 4 4 8 12 13 12 11 11 17 13 10 10 12 11 12 12 12 14 14 13 14
7 9 8 11 10 3 8 9 11 12 12 11 8 9 11 12 10 8 7 6 2 2 5 4 4 8 11 12 15 11 9 11 17 11 10 10 11 13 12 13 14 13 13 15
8 7 9 7 4 13 10 11 12 14 9 11 11 10 12 12 10 7 6 4 4 5 5 1 6 6 8 10 11 11 11 10 9 10 9 11 11 12 13 14 14 15 14 15
7 7 7 12 20 18 15 13 12 12 13 12 12 12 11 12 11 7 6 6 8 7 8 3 3 5 7 9 11 10 11 12 12 11 10 15 12 12 13 13 14 14 14 14
8 12 8 7 0 14 5 11 10 7 10 9 11 10 10 12 11 8 7 7 9 6 4 4 2 6 6 7 12 7 10 12 10 11 10 10 11 13 12 15 14 13 13 13
1 4 7 8 4 7 9 7 10 8 14 11 8 20 15 13 13 11 8 8 7 10 8 6 5 4 5 7 9 7 8 9 11 10 11 10 12 12 12 13 13 12 11 11
1 6 9 5 4 5 6 6 9 10 9 11 12 4 3 3 6 8 9 6 6 11 7 5 5 2 3 9 7 7 7 7 8 9 10 10 10 11 11 12 13 12 13 13
7 11 10 9 9 9 9 6 6 9 10 10 8 6 8 8 8 6 8 9 6 10 7 7 6 7 5 7 6 6 7 7 8 9 10 9 10 11 11 11 12 12 13 13
8 6 3 4 7 9 10 10 11 11 10 9 9 7 9 6 6 9 5 11 9 12 8 6 7 10 8 7 5 4 3 7 7 7 9 13 9 9 10 11 11 11 12 15
4 6 8 7 7 7 11 14 13 12 11 1 4 8 11 1 5 5 5 8 12 10 8 9 11 11 7 7 7 5 4 4 6 5 6 8 9 9 9 9 10 10 10 11
5 6 6 9 5 7 7 8 7 3 4 7 6 2 1 7 13 6 6 5 6 10 7 6 6 6 6 5 3 4 4 3 4 3 5 7 8 9 9 10 9 9 8 9
7 8 8 7 4 6 7 7 6 5 6 7 7 6 5 7 3 1 1 3 3 2 2 2 1 2 3 6 5 1 3 4 2 2 2 5 7 8 9 9 8 8 7 8
Wind_Direction
199 289 322 278 211 233 253 268 346 126 143 143 142 133 122 113 97 87 85 81 76 72 61 56 59 70 70 18 29 20 2 360 14 358 265 184 155 215 209 198 202 201 211 227
292 275 304 329 162 244 232 267 240 146 151 125 128 137 125 113 101 89 84 89 79 75 69 73 61 56 58 78 23 11 42 11 359 326 349 326 283 253 228 221 215 207 211 212
262 239 260 275 297 195 276 286 93 116 141 129 137 127 122 105 95 92 84 70 80 71 58 47 60 52 67 110 104 48 54 40 359 1 360 360 325 277 240 233 231 231 221 215
249 183 243 259 278 288 303 29 75 146 141 151 121 114 96 100 93 83 77 74 57 56 65 52 49 41 26 35 40 42 25 12 48 22 352 342 344 0 341 282 259 252 251 240
270 168 246 256 205 202 224 112 103 131 148 124 132 115 112 99 93 83 73 73 52 40 31 42 42 55 54 19 19 28 25 5 15 17 352 341 329 343 330 343 323 274 261 259
257 250 254 68 107 38 166 165 130 146 158 156 171 188 152 125 94 82 65 60 43 31 18 35 16 3 4 5 353 25 358 354 353 350 341 336 328 323 313 323 316 325 290 268
253 253 134 187 129 154 182 165 145 167 146 148 149 53 98 106 91 80 66 59 30 38 34 24 8 352 342 344 349 355 346 337 338 336 331 304 321 339 324 305 297 300 303 286
239 259 228 120 131 259 81 107 133 115 84 81 102 114 111 107 103 80 63 50 33 47 35 24 20 4 353 346 353 344 337 331 329 324 321 323 317 305 303 295 289 281 275 279
283 12 49 45 34 114 128 127 138 139 145 144 159 135 118 118 108 99 85 62 38 23 5 16 12 7 354 354 338 333 324 317 318 318 311 300 295 298 283 287 273 274 265 265
310 268 207 170 123 138 119 152 166 158 149 180 163 137 142 123 102 85 60 35 38 5 352 349 350 349 345 337 341 333 322 319 312 308 304 297 286 277 274 265 273 273 276 262
239 257 285 224 183 175 172 196 174 161 164 175 146 153 145 140 142 74 46 48 44 2 353 342 355 350 337 342 343 331 324 318 312 303 305 308 294 286 276 274 265 274 280 287
271 266 244 239 220 191 188 193 191 174 174 170 180 168 158 178 101 140 15 37 29 10 356 350 348 342 348 343 349 331 320 317 321 315 308 308 305 301 293 285 287 274 260 253
248 308 298 265 212 201 197 187 194 197 187 186 183 185 188 199 153 151 240 66 20 340 353 357 352 343 346 344 335 327 317 310 309 309 310 309 301 302 303 300 292 282 268 258
313 299 292 270 188 202 206 184 184 197 191 196 204 192 199 203 141 229 83 43 21 339 6 347 338 333 335 340 330 316 308 303 297 296 296 295 298 298 295 295 299 293 276 252
274 265 267 284 187 182 199 194 182 202 214 203 200 220 185 198 222 269 292 36 30 317 339 344 330 332 335 334 319 309 305 299 294 295 294 293 292 283 283 290 290 291 301 278
281 230 59 320 238 192 184 205 203 205 200 212 221 189 177 183 182 193 249 115 283 4 329 292 333 342 344 328 317 312 309 307 301 290 288 291 282 285 285 275 279 280 274 283
284 240 186 242 320 254 225 191 206 224 224 221 238 186 177 184 187 192 166 209 163 4 286 87 1 7 336 332 331 322 314 305 297 290 287 282 282 282 278 278 283 278 279 292
232 230 219 166 266 282 240 234 230 232 227 221 222 227 188 185 201 197 183 177 220 243 274 60 63 355 336 337 334 324 315 309 302 295 289 283 280 281 278 275 276 276 275 279
279 252 195 222 210 219 244 246 239 248 216 219 226 228 199 191 174 185 166 207 237 236 237 296 67 328 346 335 344 332 333 327 319 315 311 306 297 291 284 271 268 270 271 274
263 228 266 206 135 301 268 287 312 328 335 342 250 223 222 190 179 174 190 218 233 237 176 267 330 296 319 332 343 330 338 327 317 305 301 299 296 294 288 279 279 284 281 269
122 276 43 14 341 261 258 248 248 249 284 282 300 286 238 203 180 165 188 217 206 170 210 183 216 277 319 329 321 329 323 316 316 314 303 298 300 295 295 295 294 290 287 274
170 231 258 262 251 271 282 299 305 306 297 279 245 212 95 300 220 159 183 230 166 179 220 247 207 119 304 314 311 314 316 310 304 310 310 298 297 299 295 293 289 286 282 276
347 19 357 10 1 348 331 310 294 289 293 300 297 258 191 144 258 217 197 182 189 193 233 271 166 176 231 277 289 303 321 308 296 307 308 304 302 299 295 293 293 290 286 279
31 1 299 268 289 303 309 301 307 319 316 308 282 268 173 148 240 252 113 143 140 174 232 269 178 198 227 283 279 214 278 323 305 306 314 316 303 302 300 303 298 292 285 290
319 314 54 10 344 327 338 331 315 300 287 231 31 153 129 216 246 274 183 168 190 208 255 154 198 218 245 265 272 258 260 316 325 306 319 320 313 312 306 304 302 300 297 296
302 18 56 47 30 26 5 350 317 240 152 112 75 10 126 231 221 199 166 192 243 193 234 156 203 223 252 308 305 246 246 278 332 339 329 330 322 323 318 318 316 317 315 314
91 36 31 58 36 45 28 17 356 68 104 133 161 222 245 251 194 6 120 282 305 313 291 328 64 261 313 294 318 35 192 197 153 56 333 325 329 329 326 326 326 329 335 348